Location: Aulagny
(45.1643°N, 4.3096°E)
Time: 17:24:44
(UTC+00:00)

Cosmos 1934 Rocket - Pass Details

Date: 21 October 2019
Orbit: 939 x 998 km, 83.0° (Epoch: 14 November)

Event Time Altitude Azimuth Distance (km) Brightness Sun altitude
Rises 17:04:26 0° 354° (N) 3,710 7.0 -3.6°
Reaches altitude 10° 17:07:01 10° 359° (N) 2,764 6.3 -4.1°
Maximum altitude 17:13:16 58° 78° (ENE) 1,154 4.1 -5.2°
Drops below altitude 10° 17:19:31 10° 157° (SSE) 2,760 6.2 -6.2°
Sets 17:22:06 0° 161° (SSE) 3,704 6.9 -6.7°
